2018-083B (43663 NORAD) Tracking and Keplerian Element Data

This shows tracking and keplerian element data for the satellite.

Feedback or suggestion? Click here.




ElementValue
Catalog43663
Name2018-083B
Epoch Orbit253
Epoch Day318.77825593
Epoch Year2018
RAAN339.5375
Inclination97.5307
Eccentricity0.0010142
Argument of Perigee202.6023
Mean Anonmoly210.967
Mean Motion15.16426528
Decay Rate1.006E-05
L11 43663U 18083B 18318.77825593 .00001006 00000-0 55207-4 0 9999
L22 43663 97.5307 339.5375 0010142 202.6023 210.9670 15.16426528 2538

Live tracking and technical data element details for 2018-083B (NORAD 43663). 2018-083B can be tracked NOW for your location showing map with azimuth and elevation plus other details from your city location.

Track the satellite on the map from your city or location and see movement details for azimuth, elevation, latitude, longitude, range, height, and movement on the map or in text.







IsCatalogInMostPopularTable: catalog: 43663, numindb: 15
Update: records affected: 1



GetName: 43663 2018-083B

Hit Count: updated at: Fri, 16 Nov 2018 03:44:31 GMT